Weather History for Covington, KY

Change the Weather History Date:

Wednesday, March 6, 2013

  Actual Average Record
Temperature  
Mean Temperature 31 °F 40 °F  
Max Temperature 33 °F 49 °F 74 °F (1973)
Min Temperature 29 °F 31 °F 2 °F (1960)
Degree Days  
Heating Degree Days 34 25  
Month to date heating degree days 206 155  
Since 1 July heating degree days 3916 3990  
Cooling Degree Days 0 0  
Month to date cooling degree days 0 0  
Year to date cooling degree days 0 0  
Moisture  
Dew Point 28 °F    
Average Humidity 93    
Maximum Humidity 100    
Minimum Humidity 85    
Precipitation  
Precipitation 0.12 in 0.12 in 2.59 in (1945)
Month to date precipitation 0.74 0.65  
Year to date precipitation 6.34 6.46  
Snow  
Snow 1.80 in 0.10 in 5.80 in (1967)
Month to date snowfall 4.9 0.8  
Since 1 July snowfall 21.3 19.4  
Snow Depth 4.00 in    
Sea Level Pressure  
Sea Level Pressure 30.00 in    
Wind  
Wind Speed 14 mph (NW)    
Max Wind Speed 26 mph    
Max Gust Speed 33 mph    
Visibility 5 miles    
Events Snow    
T = Trace of Precipitation, MM = Missing Value Source: NWS Daily Summary

Daily Weather History Graph

Daily Weather History Graph

Search for Another Location

Airport:

Trip Planner

Search our weather history database for the weather conditions in past years. The results will help you decide how hot, cold, wet, or windy it might be!

Date:

Astronomy

Mar. 06, 2013 Rise Set
Actual Time 7:03 AM EST 6:36 PM EST
Civil Twilight 6:36 AM EST 7:03 PM EST
Nautical Twilight 6:05 AM EST 7:34 PM EST
Astronomical Twilight 5:34 AM EST 8:05 PM EST
Moon 3:09 AM EST (3/6) 1:19 PM EST (3/6)
Length of Visible Light 12h 26m
Length of Day
11h 33m
Waning Crescent, 30% of the Moon is Illuminated
Mar 6
Waning Crescent
Mar 11
New
Mar 19
First Quarter
Mar 27
Full
Apr 3
Last Quarter

Hourly Weather History & Observations

Time (EST) Temp. Windchill Dew Point Humidity Pressure Visibility Wind Dir Wind Speed Gust Speed Precip Events Conditions
12:23 AM 28.4 °F 15.1 °F 28.4 °F 100% 29.66 in 0.8 mi West 20.7 mph 27.6 mph 0.02 in Snow Light Snow
12:30 AM 28.4 °F 15.4 °F 28.4 °F 100% 29.66 in 0.8 mi West 19.6 mph 28.8 mph 0.02 in Snow Light Snow
12:52 AM 28.9 °F 16.5 °F 28.9 °F 100% 29.68 in 0.8 mi West 18.4 mph 25.3 mph 0.03 in Snow Light Snow
1:28 AM 30.2 °F 17.4 °F 28.4 °F 93% 29.68 in 0.2 mi West 20.7 mph 26.5 mph 0.01 in Snow Snow
1:52 AM 30.0 °F 18.7 °F 28.9 °F 96% 29.70 in 0.2 mi West 16.1 mph - 0.02 in Snow Snow
2:37 AM 28.4 °F 15.8 °F 28.4 °F 100% 29.70 in 0.2 mi WNW 18.4 mph - 0.01 in Snow Snow
2:52 AM 28.9 °F 16.5 °F 28.0 °F 96% 29.72 in 0.8 mi WNW 18.4 mph - 0.01 in Snow Light Snow
3:52 AM 28.9 °F 17.3 °F 28.0 °F 96% 29.74 in 0.8 mi WNW 16.1 mph - 0.01 in Snow Light Snow
4:52 AM 28.9 °F 16.5 °F 28.0 °F 96% 29.78 in 0.8 mi NW 18.4 mph 32.2 mph 0.00 in Snow Light Snow
5:37 AM 28.4 °F 14.4 °F 26.6 °F 93% 29.80 in 0.8 mi NNW 23.0 mph - 0.00 in Snow Light Snow
5:52 AM 28.9 °F 15.4 °F 27.0 °F 92% 29.83 in 0.5 mi NNW 21.9 mph 28.8 mph 0.00 in Snow Light Snow
6:32 AM 28.4 °F 14.7 °F 26.6 °F 93% 29.85 in 2.0 mi NW 21.9 mph - N/A Snow Light Snow
6:52 AM 28.9 °F 16.1 °F 27.0 °F 92% 29.88 in 2.0 mi NW 19.6 mph - 0.00 in Snow Light Snow
6:59 AM 28.4 °F 15.4 °F 26.6 °F 93% 29.87 in 3.0 mi NNW 19.6 mph - 0.00 in Snow Light Snow
7:52 AM 28.9 °F 16.9 °F 26.1 °F 89% 29.94 in 5.0 mi NNW 17.3 mph 27.6 mph 0.00 in   Overcast
8:52 AM 28.9 °F 14.5 °F 26.1 °F 89% 30.00 in 5.0 mi NNW 25.3 mph 32.2 mph N/A   Overcast
9:52 AM 28.9 °F 16.1 °F 26.1 °F 89% 30.05 in 3.0 mi NW 19.6 mph 29.9 mph 0.00 in Snow Light Snow
10:52 AM 28.9 °F 15.4 °F 26.1 °F 89% 30.08 in 4.0 mi NNW 21.9 mph 26.5 mph 0.00 in   Overcast
11:52 AM 30.0 °F 19.5 °F 27.0 °F 88% 30.12 in 8.0 mi NW 13.8 mph - N/A   Overcast
12:52 PM 32.0 °F 23.0 °F 28.0 °F 85% 30.14 in 8.0 mi NW 11.5 mph - N/A   Overcast
1:52 PM 32.0 °F 21.6 °F 28.0 °F 85% 30.14 in 8.0 mi NNW 15.0 mph - N/A   Overcast
2:05 PM 32.0 °F 21.6 °F 28.4 °F 87% 30.12 in 8.0 mi NW 15.0 mph - N/A   Overcast
2:52 PM 32.0 °F 22.1 °F 28.0 °F 85% 30.15 in 8.0 mi NW 13.8 mph - N/A   Overcast
3:52 PM 32.0 °F 22.1 °F 28.9 °F 88% 30.18 in 7.0 mi WNW 13.8 mph - N/A   Overcast
4:40 PM 32.0 °F 22.5 °F 28.4 °F 87% 30.17 in 7.0 mi NW 12.7 mph - N/A   Overcast
4:52 PM 32.0 °F 23.0 °F 28.0 °F 85% 30.19 in 8.0 mi NW 11.5 mph - N/A   Overcast
5:52 PM 32.0 °F 24.2 °F 28.0 °F 85% 30.22 in 8.0 mi WNW 9.2 mph - N/A   Overcast
6:52 PM 32.0 °F 24.2 °F 28.0 °F 85% 30.24 in 9.0 mi WNW 9.2 mph - N/A   Overcast
7:52 PM 32.0 °F 26.4 °F 28.0 °F 85% 30.26 in 10.0 mi WNW 5.8 mph - N/A   Overcast
8:52 PM 32.0 °F 26.4 °F 28.9 °F 88% 30.26 in 10.0 mi WNW 5.8 mph - N/A   Overcast
9:38 PM 32.0 °F 25.6 °F 28.4 °F 87% 30.25 in 8.0 mi WNW 6.9 mph - 0.00 in   Light Freezing Drizzle
9:52 PM 32.0 °F 26.4 °F 28.9 °F 88% 30.27 in 8.0 mi WNW 5.8 mph - 0.00 in   Light Freezing Drizzle
10:42 PM 32.0 °F 25.6 °F 28.4 °F 87% 30.25 in 8.0 mi NW 6.9 mph - 0.00 in   Light Freezing Drizzle
10:52 PM 32.0 °F 24.8 °F 28.9 °F 88% 30.27 in 8.0 mi WNW 8.1 mph - 0.00 in   Light Freezing Drizzle
11:52 PM 30.9 °F 24.3 °F 30.0 °F 96% 30.26 in 6.0 mi West 6.9 mph - 0.00 in   Light Freezing Drizzle